TimeEDT,TemperatureF,Dew PointF,Humidity,Sea Level PressureIn,VisibilityMPH,Wind Direction,Wind SpeedMPH,Gust SpeedMPH,PrecipitationIn,Events,Conditions,WindDirDegrees,DateUTC
12:53 AM,52.0,50.0,93,30.16,10.0,Calm,Calm,-,N/A,,Clear,0,2012-10-04 04:53:00
1:53 AM,50.0,48.0,93,30.17,7.0,Calm,Calm,-,N/A,,Clear,0,2012-10-04 05:53:00
2:53 AM,48.9,46.9,93,30.17,4.0,Calm,Calm,-,N/A,,Clear,0,2012-10-04 06:53:00
3:35 AM,48.2,46.4,93,30.17,1.8,Calm,Calm,-,N/A,,Clear,0,2012-10-04 07:35:00
3:38 AM,48.2,46.4,93,30.17,0.8,Calm,Calm,-,N/A,,Clear,0,2012-10-04 07:38:00
3:53 AM,48.9,46.9,93,30.17,3.0,Calm,Calm,-,N/A,,Clear,0,2012-10-04 07:53:00
4:53 AM,48.0,46.0,93,30.17,6.0,Calm,Calm,-,0.01,,Clear,0,2012-10-04 08:53:00
5:47 AM,48.2,46.4,93,30.18,1.8,East,3.5,-,N/A,,Clear,100,2012-10-04 09:47:00
5:53 AM,48.0,46.9,96,30.18,2.0,Calm,Calm,-,N/A,,Clear,0,2012-10-04 09:53:00
6:01 AM,48.2,46.4,93,30.18,5.0,Calm,Calm,-,N/A,,Clear,0,2012-10-04 10:01:00
6:42 AM,48.2,46.4,93,30.19,2.0,ESE,3.5,-,N/A,,Clear,110,2012-10-04 10:42:00
6:50 AM,50.0,48.2,94,30.19,5.0,ESE,3.5,-,N/A,,Clear,110,2012-10-04 10:50:00
6:53 AM,51.1,50.0,96,30.19,5.0,ESE,3.5,-,N/A,,Clear,110,2012-10-04 10:53:00
7:53 AM,53.1,52.0,96,30.20,3.0,East,5.8,-,0.00,Rain,Light Rain,100,2012-10-04 11:53:00
8:53 AM,57.0,55.0,93,30.21,6.0,Calm,Calm,-,0.00,,Mostly Cloudy,0,2012-10-04 12:53:00
9:53 AM,61.0,57.0,87,30.21,8.0,ESE,4.6,-,N/A,,Partly Cloudy,110,2012-10-04 13:53:00
10:53 AM,68.0,57.0,68,30.22,10.0,WSW,4.6,-,N/A,,Mostly Cloudy,240,2012-10-04 14:53:00
11:53 AM,72.0,57.0,59,30.22,10.0,SW,9.2,-,N/A,,Partly Cloudy,220,2012-10-04 15:53:00
12:53 PM,75.9,57.9,54,30.20,10.0,SSW,8.1,-,N/A,,Clear,210,2012-10-04 16:53:00
1:53 PM,78.1,57.0,48,30.18,10.0,SW,9.2,16.1,N/A,,Mostly Cloudy,220,2012-10-04 17:53:00
2:53 PM,78.1,55.9,46,30.16,10.0,SW,9.2,19.6,N/A,,Scattered Clouds,230,2012-10-04 18:53:00
3:53 PM,80.1,55.0,42,30.15,10.0,SSW,9.2,17.3,N/A,,Scattered Clouds,210,2012-10-04 19:53:00
4:53 PM,79.0,55.0,44,30.14,10.0,SW,8.1,-,N/A,,Scattered Clouds,220,2012-10-04 20:53:00
5:53 PM,75.9,54.0,46,30.15,10.0,SW,6.9,-,N/A,,Partly Cloudy,220,2012-10-04 21:53:00
6:53 PM,73.0,55.0,53,30.15,10.0,SSW,4.6,-,N/A,,Clear,210,2012-10-04 22:53:00
7:53 PM,66.9,55.9,68,30.15,10.0,SSW,3.5,-,N/A,,Partly Cloudy,200,2012-10-04 23:53:00
8:53 PM,62.1,55.0,78,30.16,10.0,Calm,Calm,-,N/A,,Clear,0,2012-10-05 00:53:00
9:53 PM,60.1,55.0,83,30.16,10.0,Calm,Calm,-,N/A,,Clear,0,2012-10-05 01:53:00
10:53 PM,57.9,54.0,87,30.16,10.0,Calm,Calm,-,N/A,,Clear,0,2012-10-05 02:53:00
11:53 PM,57.0,53.1,87,30.15,10.0,Calm,Calm,-,N/A,,Clear,0,2012-10-05 03:53:00